User: anonymous   Login
Location: Radford
(37.1320°N, 80.5770°W)
Time: 20:07:21
(UTC-05:00)
Language:

Okean 1-7 - Orbit

View from above orbital plane
View from above orbital plane
View from above satellite
View from above satellite

Ground track
Ground track

The orbit data is extracted from the following two-line orbital elements,

1 23317U 94066A   17321.84857579  .00000317  00000-0  32264-4 0  9990
2 23317  82.5361 333.8022 0018191 275.3236  84.5905 14.87484679248780
Epoch (UTC): 17 November 2017 20:21:56
Eccentricity: 0.0018191
inclination: 82.5361°
perigee height: 593 km
apogee height: 618 km
right ascension of ascending node: 333.8022°
argument of perigee: 275.3236°
revolutions per day: 14.87484679
mean anomaly at epoch: 84.5905°
orbit number at epoch: 24878

The dashed part of the orbit path shows where the satellite is in the earth's shadow,  

DLR